This demonstration page uses our WeatherBlox Daily Observations layout. Learn more.

Left ArrowRight Arrow

41.86663, -103.66717

Hourly Observations for February 28, 2019

Temp ( °F °C ) Dew Point ( °F °C ) Humidity (%) Winds ( mph kmh ) Pressure ( in mb ) Visibility ( mi km ) Precip ( " mm )
12:53 am 00:53 Clear 20 -6.7 16 -8.9 85 85 E 12 19 30.04 1017 10 16 N/A
1:53 am 01:53 Clear 19 -7.2 15 -9.4 84 84 E 9 15 30.03 1017 10 16 N/A
2:53 am 02:53 Clear 17 -8.3 14 -10 88 88 NNW 3 6 30.04 1017 10 16 N/A
3:53 am 03:53 Clear 16 -8.9 14 -10 92 92 W 5 7 30.08 1019 10 16 N/A
4:53 am 04:53 Clear 14 -10 12 -11.1 92 92 WNW 5 7 30.11 1020 10 16 N/A
5:53 am 05:53 Clear 15 -9.4 12 -11.1 88 88 NW 5 7 30.12 1020 10 16 N/A
6:53 am 06:53 Sunny 15 -9.4 12 -11.1 88 88 E 5 7 30.15 1021 8 13 N/A
7:53 am 07:53 Sunny 23 -5 18 -7.8 81 81 N 3 6 30.13 1020 10 16 N/A
8:53 am 08:53 Sunny 26 -3.3 19 -7.2 75 75 N N/A 30.12 1020 10 16 N/A
9:53 am 09:53 Sunny 28 -2.2 18 -7.8 66 66 N N/A 30.09 1019 10 16 N/A
10:53 am 10:53 Sunny 33 0.6 20 -6.7 58 58 ESE 5 7 30.04 1017 10 16 N/A
11:53 am 11:53 Sunny 38 3.3 21 -6.1 51 51 ESE 8 13 30.00 1016 10 16 N/A
12:53 pm 12:53 Sunny 41 5 21 -6.1 45 45 ESE 9 15 29.94 1014 10 16 N/A
1:53 pm 13:53 Sunny 45 7.2 22 -5.6 40 40 SE 12 19 29.91 1013 10 16 N/A
2:53 pm 14:53 Mostly Cloudy 45 7.2 22 -5.6 40 40 ESE 18 30 29.90 1013 10 16 N/A
3:53 pm 15:53 Cloudy 41 5 22 -5.6 47 47 ESE 16 26 29.93 1013 10 16 N/A
4:53 pm 16:53 Cloudy 39 3.9 24 -4.4 55 55 E 10 17 29.95 1014 10 16 N/A
5:53 pm 17:53 Partly Cloudy 34 1.1 27 -2.8 76 76 ESE 10 17 29.93 1014 10 16 0.01 0.25
6:53 pm 18:53 Mostly Clear 31 -0.6 25 -3.9 79 79 ESE 13 20 29.94 1014 10 16 N/A
7:53 pm 19:53 Cloudy 31 -0.6 25 -3.9 79 79 ESE 13 20 29.91 1013 10 16 N/A
8:53 pm 20:53 Cloudy 31 -0.6 25 -3.9 79 79 ESE 12 19 29.88 1012 10 16 N/A
9:53 pm 21:53 Mostly Cloudy 30 -1.1 26 -3.3 85 85 ESE 10 17 29.88 1012 10 16 N/A
10:53 pm 22:53 Mostly Cloudy 30 -1.1 26 -3.3 85 85 E 9 15 29.85 1011 10 16 N/A
11:53 pm 23:53 Partly Cloudy 29 -1.7 26 -3.3 89 89 E 9 15 29.83 1010 10 16 N/A

Powered by AerisWeather